Date,TemperatureHighF,TemperatureAvgF,TemperatureLowF,DewpointHighF,DewpointAvgF,DewpointLowF,HumidityHigh,HumidityAvg,HumidityLow,PressureMaxIn,PressureMinIn,WindSpeedMaxMPH,WindSpeedAvgMPH,GustSpeedMaxMPH,PrecipitationSumIn
2013-5-1,94,76,61,34,-7,-20,28,5,2,30.09,29.83,12,2,12,0.00
2013-5-2,99,78,58,37,14,-17,36,17,2,30.21,30.07,6,1,8,0.00
2013-5-3,99,78,56,50,28,-11,48,25,2,30.09,29.77,6,1,8,0.00
2013-5-4,96,77,57,48,26,-13,63,28,2,29.80,29.50,8,2,10,0.00
2013-5-5,86,68,56,52,49,46,78,52,30,29.83,29.59,8,4,10,0.00
2013-5-6,84,67,58,57,52,45,94,63,33,29.98,29.83,10,1,15,0.00
2013-5-7,81,65,58,57,53,48,93,66,35,30.07,29.95,12,2,12,0.00
2013-5-8,80,65,56,55,52,50,91,65,36,30.15,30.01,9,3,11,0.00
2013-5-9,86,67,52,57,52,48,91,63,37,30.18,30.03,10,2,12,0.00
2013-5-10,92,71,53,63,55,50,91,60,34,30.18,30.07,7,1,8,0.00
2013-5-11,100,78,58,64,56,52,82,51,28,30.15,30.01,6,1,6,0.00
2013-5-12,98,76,58,59,50,-6,70,43,2,30.15,29.98,10,2,12,0.00
2013-5-13,98,76,58,59,51,43,74,44,20,30.09,29.89,10,2,10,0.00
2013-5-14,94,75,58,59,52,45,79,48,28,29.95,29.86,8,2,10,0.00
2013-5-15,82,69,57,52,47,45,66,46,31,30.03,29.95,10,2,12,0.00
2013-5-16,85,68,57,57,51,45,76,56,33,30.07,29.92,10,2,14,0.00
2013-5-17,83,66,52,54,46,37,92,52,27,30.09,29.95,10,2,13,0.00
2013-5-18,90,72,50,54,47,30,90,47,13,30.15,29.98,8,2,8,0.00
2013-5-19,90,74,57,52,37,-13,84,37,2,30.15,29.95,9,2,12,0.00
2013-5-20,98,79,62,52,29,-9,66,26,2,30.03,29.89,8,2,12,0.00
2013-5-21,84,69,56,50,45,39,61,43,28,29.95,29.86,11,3,14,0.00
2013-5-22,80,64,51,45,21,-20,66,29,2,30.03,29.89,8,3,10,0.00
2013-5-23,84,65,48,48,40,-15,76,47,2,30.01,29.89,6,1,8,0.00
2013-5-24,86,67,50,52,40,-15,86,44,2,30.03,29.92,10,2,10,0.00
2013-5-25,84,66,50,54,46,39,82,50,30,30.03,29.95,11,2,11,0.00
2013-5-26,87,63,52,55,50,45,85,65,32,30.12,30.01,13,1,13,0.00
2013-5-27,73,63,53,57,51,46,91,67,44,30.12,30.03,8,2,11,0.00
2013-5-28,86,70,59,61,55,50,93,62,31,30.03,29.89,8,2,11,0.00
2013-5-29,88,72,60,59,52,48,77,51,30,29.98,29.86,11,2,13,0.00
2013-5-30,93,73,55,55,48,19,76,46,7,30.01,29.89,8,2,10,0.00
2013-5-31,99,77,55,55,35,-11,77,35,2,30.03,29.89,11,2,11,0.00